Weather History for Alpena, MI

Change the Weather History Date:

Tuesday, February 19, 2013

  Actual Average Record
Temperature  
Mean Temperature 27 °F 21 °F  
Max Temperature 39 °F 30 °F 58 °F (1930)
Min Temperature 14 °F 12 °F -20 °F (1979)
Degree Days  
Heating Degree Days 38 44  
Month to date heating degree days 891 862  
Since 1 July heating degree days 4958 5344  
Moisture  
Dew Point 20 °F    
Average Humidity 76    
Maximum Humidity 92    
Minimum Humidity 59    
Precipitation  
Precipitation 0.12 in 0.05 in 0.81 in (1946)
Month to date precipitation 0.98 0.84  
Year to date precipitation 3.75 2.50  
Snow  
Snow 0.60 in 0.70 in 6.50 in (1946)
Month to date snowfall 9.4 12.1  
Since 1 July snowfall 30.4 60.7  
Snow Depth 4.00 in    
Sea Level Pressure  
Sea Level Pressure 29.48 in    
Wind  
Wind Speed 16 mph (West)    
Max Wind Speed 24 mph    
Max Gust Speed 36 mph    
Visibility 5 miles    
Events Fog , Rain , Snow    
T = Trace of Precipitation, MM = Missing Value Source: NWS Daily Summary

Daily Weather History Graph

Daily Weather History Graph

Search for Another Location

Airport:

Trip Planner

Search our weather history database for the weather conditions in past years. The results will help you decide how hot, cold, wet, or windy it might be!

Date:

Astronomy

Feb. 19, 2013 Rise Set
Actual Time 7:28 AM EST 6:08 PM EST
Civil Twilight 6:58 AM EST 6:38 PM EST
Nautical Twilight 6:24 AM EST 7:12 PM EST
Astronomical Twilight 5:50 AM EST 7:46 PM EST
Moon 12:30 PM EST (2/19) 3:07 AM EST (2/19)
Length of Visible Light 11h 39m
Length of Day
10h 39m
Waxing Gibbous, 67% of the Moon is Illuminated
Feb 19
Waxing Gibbous
Feb 25
Full
Mar 4
Last Quarter
Mar 11
New
Mar 19
First Quarter

Hourly Weather History & Observations

Time (EST) Temp. Windchill Dew Point Humidity Pressure Visibility Wind Dir Wind Speed Gust Speed Precip Events Conditions
12:54 AM 36.0 °F 28.5 °F 30.9 °F 82% 29.49 in 10.0 mi SE 10.4 mph - N/A   Overcast
1:54 AM 37.0 °F 27.4 °F 30.9 °F 79% 29.45 in 9.0 mi SSE 17.3 mph 23.0 mph 0.01 in Rain Light Rain
2:54 AM 37.0 °F 28.5 °F 32.0 °F 82% 29.39 in 8.0 mi SSE 13.8 mph - 0.00 in Rain Light Rain
3:32 AM 35.6 °F 28.0 °F 33.8 °F 93% 29.33 in 7.0 mi SE 10.4 mph - 0.02 in Rain Light Rain
3:50 AM 35.6 °F 27.5 °F 33.8 °F 93% 29.31 in 7.0 mi SE 11.5 mph - 0.02 in Rain Light Rain
3:54 AM 36.0 °F 27.5 °F 34.0 °F 93% 29.33 in 6.0 mi SE 12.7 mph - 0.02 in Rain Light Rain
4:34 AM 35.6 °F 27.1 °F 33.8 °F 93% 29.28 in 6.0 mi SSE 12.7 mph - 0.02 in Rain Light Rain
4:54 AM 36.0 °F 27.1 °F 34.0 °F 93% 29.28 in 5.0 mi SSE 13.8 mph - 0.04 in Rain Light Rain
5:37 AM 37.4 °F 28.2 °F 33.8 °F 87% 29.23 in 8.0 mi SSE 16.1 mph - 0.02 in Rain Light Rain
5:54 AM 37.0 °F 28.5 °F 35.1 °F 93% 29.25 in 9.0 mi SSE 13.8 mph - 0.02 in   Overcast
6:54 AM 37.9 °F 30.5 °F 36.0 °F 93% 29.23 in 8.0 mi South 11.5 mph - 0.02 in Rain Light Rain
7:20 AM 37.4 °F 26.9 °F 33.8 °F 87% 29.23 in 10.0 mi WSW 20.7 mph 31.1 mph 0.00 in   Overcast
7:54 AM 35.1 °F 25.9 °F 30.0 °F 82% 29.26 in 10.0 mi SW 13.8 mph 25.3 mph 0.00 in   Overcast
8:00 AM 35.6 °F 25.5 °F 30.2 °F 81% 29.24 in 10.0 mi SW 17.3 mph 23.0 mph N/A   Mostly Cloudy
8:54 AM 34.0 °F 23.4 °F 28.9 °F 82% 29.29 in 10.0 mi SW 17.3 mph 28.8 mph N/A   Overcast
9:54 AM 34.0 °F 23.8 °F 28.0 °F 79% 29.32 in 10.0 mi WSW 16.1 mph 24.2 mph N/A   Overcast
10:54 AM 34.0 °F 24.6 °F 26.1 °F 73% 29.34 in 10.0 mi WSW 13.8 mph 31.1 mph N/A   Overcast
11:54 AM 33.1 °F 21.5 °F 24.1 °F 70% 29.37 in 10.0 mi WSW 19.6 mph 31.1 mph N/A   Overcast
12:54 PM 32.0 °F 19.5 °F 19.9 °F 61% 29.38 in 10.0 mi WSW 21.9 mph 32.2 mph N/A   Mostly Cloudy
1:54 PM 30.9 °F 19.1 °F 19.0 °F 61% 29.40 in 10.0 mi WSW 18.4 mph 27.6 mph N/A   Overcast
2:54 PM 30.0 °F 17.2 °F 19.0 °F 64% 29.42 in 10.0 mi West 20.7 mph 29.9 mph N/A   Overcast
3:33 PM 28.4 °F 19.1 °F 21.2 °F 74% 29.43 in 2.5 mi West 10.4 mph 27.6 mph 0.00 in Snow Light Snow
3:38 PM 28.4 °F 17.5 °F 19.4 °F 69% 29.44 in 3.0 mi West 13.8 mph 25.3 mph 0.00 in Snow Light Snow
3:43 PM 26.6 °F 16.2 °F 19.4 °F 74% 29.44 in 1.5 mi West 11.5 mph 25.3 mph 0.00 in Snow Light Snow
3:47 PM 26.6 °F 15.7 °F 21.2 °F 80% 29.44 in 3.0 mi West 12.7 mph 25.3 mph 0.00 in Snow Light Snow
3:54 PM 27.0 °F 14.3 °F 21.0 °F 78% 29.47 in 3.0 mi West 17.3 mph 24.2 mph 0.00 in Snow Light Snow
4:06 PM 26.6 °F 14.3 °F 19.4 °F 74% 29.46 in 1.8 mi West 16.1 mph 24.2 mph 0.00 in Snow Light Snow
4:11 PM 26.6 °F 15.2 °F 19.4 °F 74% 29.46 in 2.0 mi West 13.8 mph 24.2 mph 0.00 in Snow Light Snow
4:21 PM 26.6 °F 15.7 °F 19.4 °F 74% 29.47 in 7.0 mi West 12.7 mph 23.0 mph 0.00 in Snow Light Snow
4:52 PM 24.8 °F 14.0 °F 17.6 °F 74% 29.49 in 0.8 mi WNW 11.5 mph 24.2 mph 0.00 in Snow Light Snow
4:54 PM 24.1 °F 12.0 °F 18.0 °F 77% 29.52 in 0.5 mi West 13.8 mph 21.9 mph 0.00 in Snow Snow
4:59 PM 23.0 °F 11.1 °F 19.4 °F 86% 29.50 in 0.2 mi West 12.7 mph 24.2 mph 0.00 in Fog , Snow Snow
5:20 PM 23.0 °F 10.1 °F 19.4 °F 86% 29.51 in 0.5 mi West 15.0 mph 25.3 mph 0.01 in Fog , Snow Light Snow
5:26 PM 24.8 °F 11.9 °F 17.6 °F 74% 29.52 in 2.0 mi West 16.1 mph 26.5 mph 0.01 in Snow Light Snow
5:40 PM 23.0 °F 10.6 °F 15.8 °F 74% 29.53 in 1.2 mi West 13.8 mph 29.9 mph 0.01 in Snow Light Snow
5:54 PM 23.0 °F 10.6 °F 14.0 °F 68% 29.57 in 2.5 mi West 13.8 mph 28.8 mph 0.01 in Snow Light Snow
6:13 PM 21.2 °F 6.8 °F 14.0 °F 74% 29.56 in 1.2 mi West 17.3 mph 27.6 mph 0.00 in Snow Light Snow
6:24 PM 21.2 °F 6.4 °F 12.2 °F 68% 29.57 in 2.5 mi West 18.4 mph 32.2 mph 0.00 in Snow Light Snow
6:32 PM 21.2 °F 7.3 °F 12.2 °F 68% 29.57 in 2.5 mi West 16.1 mph 32.2 mph 0.00 in Snow Light Snow
7:21 PM 19.4 °F 6.6 °F 12.2 °F 74% 29.61 in 2.0 mi WNW 12.7 mph 29.9 mph 0.00 in Snow Light Snow
7:51 PM 19.4 °F 7.9 °F 10.4 °F 68% 29.62 in 4.0 mi WNW 10.4 mph 29.9 mph 0.00 in Snow Light Snow
7:54 PM 19.9 °F 5.7 °F 10.9 °F 68% 29.66 in 4.0 mi WNW 16.1 mph 29.9 mph 0.00 in Snow Light Snow
8:28 PM 17.6 °F 2.7 °F 10.4 °F 73% 29.64 in 2.5 mi WNW 16.1 mph 28.8 mph 0.00 in Snow Light Snow
8:38 PM 17.6 °F 5.7 °F 12.2 °F 79% 29.65 in 1.8 mi WNW 10.4 mph 23.0 mph 0.00 in Snow Light Snow
8:54 PM 18.0 °F 3.6 °F 10.9 °F 74% 29.69 in 2.5 mi WNW 15.0 mph 32.2 mph 0.00 in Snow Light Snow
9:01 PM 17.6 °F 2.2 °F 8.6 °F 68% 29.66 in 3.0 mi NW 17.3 mph 31.1 mph 0.00 in Snow Light Snow
9:19 PM 17.6 °F 2.2 °F 8.6 °F 68% 29.67 in 2.0 mi WNW 17.3 mph 29.9 mph 0.00 in Snow Light Snow
9:21 PM 17.6 °F 3.2 °F 8.6 °F 68% 29.67 in 1.8 mi WNW 15.0 mph 29.9 mph 0.00 in Snow Light Snow
9:37 PM 17.6 °F 5.7 °F 12.2 °F 79% 29.67 in 0.8 mi WNW 10.4 mph 28.8 mph 0.00 in Snow Light Snow
9:45 PM 17.6 °F 3.7 °F 10.4 °F 73% 29.68 in 1.0 mi WNW 13.8 mph 27.6 mph 0.00 in Snow Light Snow
9:54 PM 17.1 °F 1.0 °F 10.0 °F 74% 29.71 in 1.0 mi WNW 18.4 mph 29.9 mph 0.00 in Snow Light Snow
10:12 PM 15.8 °F 2.7 °F 8.6 °F 73% 29.69 in 2.5 mi WNW 11.5 mph 20.7 mph 0.00 in Snow Light Snow
10:41 PM 15.8 °F 2.7 °F 8.6 °F 73% 29.70 in 2.5 mi WNW 11.5 mph 26.5 mph 0.00 in Snow Light Snow
10:54 PM 15.1 °F -0.1 °F 8.1 °F 74% 29.74 in 3.0 mi WNW 15.0 mph 27.6 mph 0.00 in Snow Light Snow
11:54 PM 14.0 °F 2.0 °F 7.0 °F 74% 29.77 in 6.0 mi WNW 9.2 mph 21.9 mph 0.00 in Snow Light Snow